User: anonymous   Login
Location: Unspecified
(0.0000°N, 0.0000°E)
Time: 15:50:33
(UTC+02:00)
Language:

Centaur D-1AR AC-41 - Orbit

View from above orbital plane
View from above orbital plane
View from above satellite
View from above satellite

Ground track
Ground track

The orbit data is extracted from the following two-line orbital elements,

1 10976U 78068B   15213.02354749 -.00000127  00000-0 -54092-3 0  9993
2 10976 021.7491 078.2382 7175565 199.0394 354.0870 02.22296348300985
Epoch (UTC): 01 August 2015 00:33:54
Eccentricity: 0.7175565
inclination: 21.7491°
perigee height: 626 km
apogee height: 36216 km
right ascension of ascending node: 78.2382°
argument of perigee: 199.0394°
revolutions per day: 2.22296348
mean anomaly at epoch: 354.0870°
orbit number at epoch: 30098

The dashed part of the orbit path shows where the satellite is in the earth's shadow,  

DLR